[[{"header":{"parameterUnit":"m.s-1","parameterCategory":2,"la1":30.2991,"la2":30.254,"lo1":-89.0895,"lo2":-89.0444,"dy":0.0017,"dx":0.0017,"nx":28,"ny":28,"refTime":"2023-10-19T21:00:00:Z","depth":"0","parameterNumber":2,"parameterNumberName":"U-component_of_CURRENTS"},"data":[0,0,0,0,0,0,0,0,0,0,0,0,0,0,0,0,0,0,0,0,0,0,0,0,0,0,0,0,0,0,0,0,0,0,0,0,0,0,0,0,0,0,0,0,0,0,0,0,0,0,0,0,0,0,0,0,0,0,0.1409,0.1407,0,0.1188,0.1185,0.1182,0.1049,0.1049,0.1049,0.1048,0.0917,0.0914,0.091,0,0,0,0,0,0,0,0,0,0,0,0,0,0.1545,0.1544,0.1409,0.1407,0.1405,0.1189,0.1185,0.1182,0.1049,0.1049,0.1049,0.1048,0.0918,0.0914,0.091,0,0,0,0,0,0,0,0,0,0,0,0,0,0.1416,0.1544,0.141,0.1317,0.1307,0.119,0.1185,0.1181,0.1049,0.1049,0.1048,0.1048,0.0919,0.0914,0.0909,0.088,0,0,0.0894,0.0891,0,0,0,0,0,0,0,0,0.1424,0.1411,0.1333,0.1323,0.1312,0.1151,0.1185,0.1087,0.1049,0.114,0.1048,0.1048,0.1008,0.0995,0.0944,0.0874,0.0868,0.0893,0.089,0.0888,0.0886,0,0,0,0,0,0,0,0.1433,0.1418,0.1315,0.1331,0.1318,0.1229,0.1211,0.1164,0.1074,0.1132,0.1124,0.1109,0.1002,0.0949,0.094,0.0866,0.0893,0.0889,0.0885,0.0883,0.0903,0.0907,0,0,0,0,0,0,0.1482,0.1428,0.1323,0.1309,0.1376,0.1228,0.1207,0.1198,0.1072,0.1054,0.1109,0.1104,0.0958,0.0946,0.0935,0.0929,0.0888,0.0883,0.088,0.09,0.0904,0.0908,0,0,0,0,0,0,0.1486,0.1475,0.1332,0.1368,0.1344,0.1227,0.1216,0.1194,0.1163,0.1055,0.1037,0.1105,0.0957,0.0943,0.0945,0.0922,0.0881,0.0876,0.0895,0.0901,0.0906,0.0894,0,0,0,0,0,0,0.1491,0.1478,0.1482,0.1372,0.1345,0.1309,0.1216,0.119,0.1155,0.1146,0.1046,0.1031,0.0956,0.0954,0.0941,0.0914,0.0872,0.0891,0.0898,0.0904,0.089,0.0899,0.0906,0,0,0,0,0,0.1496,0.151,0.1483,0.147,0.1356,0.1312,0.129,0.1199,0.1157,0.1166,0.1109,0.1035,0.0988,0.0953,0.0936,0.0907,0.0888,0.0896,0.0904,0.0886,0.0897,0.0906,0,0,0,0,0,0,0.1557,0.1494,0.1463,0.1453,0.1411,0.1293,0.1278,0.1225,0.1176,0.1169,0.107,0.1053,0.1042,0.1018,0.0982,0.0951,0.093,0.0936,0.0923,0.0932,0.094,0.098,0.0868,0,0,0,0,0,0.158,0.1579,0.151,0.1503,0.1491,0.1392,0.1359,0.1309,0.1251,0.1225,0.1159,0.1109,0.1058,0.1035,0.0999,0.098,0.1011,0.0967,0.0975,0.0981,0.1014,0.104,0.1051,0.0935,0.0935,0.0934,0,0,0.1592,0.1565,0.1556,0.1518,0.1465,0.143,0.1371,0.1345,0.1301,0.1224,0.1169,0.1135,0.107,0.1036,0.103,0.1009,0.1043,0.0991,0.0995,0.1026,0.105,0.106,0.1069,0.094,0.0939,0.0938,0,0,0.162,0.1608,0.1612,0.1588,0.1547,0.1483,0.1495,0.1414,0.1372,0.1335,0.1263,0.1252,0.1165,0.1113,0.107,0.1125,0.1089,0.1108,0.1151,0.1174,0.1182,0.119,0.1277,0.1293,0.1101,0.1101,0.1101,0,0.164,0.1625,0.1608,0.1604,0.1578,0.1518,0.1505,0.1445,0.1375,0.1362,0.1339,0.1256,0.1196,0.1145,0.115,0.113,0.1168,0.109,0.1177,0.1185,0.1193,0.1281,0.1298,0.1102,0.1102,0.1102,0.1102,0,0.1649,0.1644,0.1651,0.1615,0.16,0.1588,0.1523,0.1507,0.1455,0.1399,0.1384,0.1325,0.1287,0.125,0.1192,0.1211,0.1232,0.1179,0.1132,0.1203,0.1293,0.1311,0.1102,0.1102,0.1102,0.1102,0,0,0.167,0.1657,0.1657,0.1641,0.1609,0.1585,0.1557,0.1511,0.1485,0.1449,0.1436,0.1359,0.1364,0.1328,0.1274,0.1282,0.1354,0.1255,0.1255,0.1309,0.1462,0.1678,0.1718,0.1294,0.1297,0.1299,0.1513,0,0.1674,0.1661,0.1663,0.1634,0.1615,0.1592,0.1563,0.1528,0.1492,0.1473,0.1447,0.1416,0.1374,0.136,0.1368,0.1345,0.1397,0.1305,0.1418,0.1424,0.1576,0.1744,0.1777,0.1988,0.153,0.1533,0.1535,0,0.167,0.166,0.1645,0.1631,0.1625,0.1602,0.1571,0.1547,0.1527,0.1521,0.1531,0.1504,0.1521,0.1472,0.1534,0.1474,0.1499,0.1496,0.1502,0.1725,0.1674,0.1844,0.2037,0.1889,0.1562,0.156,0.1558,0,0.1651,0.1645,0.1629,0.162,0.1596,0.1595,0.1579,0.1561,0.1566,0.1569,0.1605,0.1603,0.1648,0.1647,0.1691,0.1597,0.1798,0.1652,0.1895,0.1911,0.1983,0.2003,0.2022,0.1746,0.1746,0.1745,0.1745,0,0.1638,0.1622,0.1613,0.1595,0.1581,0.1585,0.1581,0.1576,0.1608,0.1655,0.1644,0.1722,0.1696,0.1797,0.1771,0.1969,0.1885,0.1987,0.2002,0.1992,0.2009,0.1918,0.1821,0.1753,0.1751,0.175,0.1748,0,0.1609,0.1606,0.1585,0.1571,0.157,0.1558,0.1588,0.1597,0.1646,0.1723,0.1747,0.1853,0.203,0.207,0.2135,0.2151,0.2202,0.2325,0.2374,0.2395,0.2454,0.2358,0.2429,0.2342,0.2602,0.2609,0.2615,0,0.1583,0.157,0.156,0.1559,0.1553,0.1549,0.1561,0.16,0.1644,0.182,0.1882,0.2103,0.228,0.2546,0.2635,0.2763,0.2523,0.2846,0.2673,0.2561,0.2458,0.2264,0.2163,0.2757,0.2763,0.2768,0.2773,0,0.1544,0.1549,0.1542,0.1541,0.1549,0.1556,0.1591,0.163,0.1733,0.1846,0.2071,0.2239,0.262,0.2815,0.3066,0.3116,0.2721,0.2967,0.2787,0.2597,0.2446,0.2334,0.2536,0.2821,0.2816,0.2812,0.281,0.2808,0.1529,0.1518,0.1531,0.1529,0.1549,0.1577,0.1556,0.1656,0.1767,0.1935,0.2157,0.2412,0.2787,0.3182,0.3229,0.3327,0.3147,0.3171,0.3074,0.2894,0.2791,0.3191,0.3527,0.3526,0.3525,0.3525,0.3524,0,0.1509,0.1512,0.1517,0.152,0.1529,0.1544,0.1588,0.1578,0.1696,0.1962,0.2173,0.2628,0.2913,0.3153,0.3432,0.336,0.3126,0.3237,0.2855,0.2749,0.3067,0.3052,0.3377,0.3377,0.3378,0.3378,0.3378,0.3378,0.1508,0.1509,0.151,0.1509,0.1502,0.1479,0.1477,0.1517,0.1655,0.1956,0.223,0.2489,0.2917,0.3223,0.3276,0.3232,0.2838,0.2857,0.2665,0.2767,0.2745,0.2724,0.2681,0.2924,0.2924,0.225,0.2245,0.2241]},{"header":{"parameterUnit":"m.s-1","parameterCategory":2,"la1":30.2991,"la2":30.254,"lo1":-89.0895,"lo2":-89.0444,"dy":0.0017,"dx":0.0017,"nx":28,"ny":28,"refTime":"2023-10-19T21:00:00:Z","depth":"0","parameterNumber":3,"parameterNumberName":"V-component_of_CURRENTS"},"data":[0,0,0,0,0,0,0,0,0,0,0,0,0,0,0,0,0,0,0,0,0,0,0,0,0,0,0,0,0,0,0,0,0,0,0,0,0,0,0,0,0,0,0,0,0,0,0,0,0,0,0,0,0,0,0,0,0,0,-0.1502,-0.1504,0,-0.1623,-0.1625,-0.1626,-0.1686,-0.1686,-0.1686,-0.1686,-0.1795,-0.1798,-0.1801,0,0,0,0,0,0,0,0,0,0,0,0,0,-0.1308,-0.1312,-0.1502,-0.1504,-0.1505,-0.1623,-0.1625,-0.1626,-0.1686,-0.1686,-0.1686,-0.1686,-0.1794,-0.1798,-0.1801,0,0,0,0,0,0,0,0,0,0,0,0,0,-0.1406,-0.1313,-0.1502,-0.155,-0.1556,-0.1623,-0.1625,-0.1627,-0.1686,-0.1686,-0.1686,-0.1686,-0.1793,-0.1797,-0.1801,-0.1823,0,0,-0.1814,-0.1816,0,0,0,0,0,0,0,0,-0.14,-0.1413,-0.1542,-0.1547,-0.1554,-0.1641,-0.1597,-0.1692,-0.1686,-0.1635,-0.1686,-0.1687,-0.1743,-0.1752,-0.1772,-0.1828,-0.1833,-0.1815,-0.1817,-0.1819,-0.182,0,0,0,0,0,0,0,-0.1394,-0.1408,-0.1549,-0.1543,-0.1551,-0.1561,-0.1576,-0.1615,-0.1685,-0.164,-0.1645,-0.166,-0.1746,-0.1768,-0.1775,-0.1835,-0.1814,-0.1818,-0.1821,-0.1822,-0.187,-0.1869,0,0,0,0,0,0,-0.1383,-0.1402,-0.1545,-0.1552,-0.1478,-0.1565,-0.1581,-0.1612,-0.1685,-0.1697,-0.166,-0.1663,-0.1761,-0.177,-0.1779,-0.178,-0.1819,-0.1823,-0.1825,-0.1871,-0.187,-0.1869,0,0,0,0,0,0,-0.1378,-0.1395,-0.154,-0.148,-0.1499,-0.1568,-0.1602,-0.1614,-0.1638,-0.1701,-0.1713,-0.1672,-0.1761,-0.1773,-0.1785,-0.1785,-0.1825,-0.1828,-0.1873,-0.1871,-0.1869,-0.1799,0,0,0,0,0,0,-0.1372,-0.1393,-0.1406,-0.148,-0.1502,-0.1568,-0.1603,-0.1616,-0.1648,-0.1652,-0.1715,-0.1726,-0.1762,-0.1778,-0.1789,-0.1792,-0.1832,-0.1874,-0.1872,-0.187,-0.1803,-0.1795,-0.1788,0,0,0,0,0,-0.1365,-0.1376,-0.1407,-0.1424,-0.1521,-0.1568,-0.158,-0.1628,-0.1648,-0.1651,-0.1677,-0.1724,-0.1772,-0.178,-0.1793,-0.1797,-0.1875,-0.1873,-0.187,-0.1806,-0.1797,-0.1789,0,0,0,0,0,0,-0.128,-0.1386,-0.142,-0.1459,-0.1507,-0.1578,-0.1584,-0.1624,-0.1651,-0.1648,-0.1707,-0.1718,-0.1729,-0.1765,-0.1773,-0.1801,-0.1833,-0.1832,-0.178,-0.1771,-0.1764,-0.1732,-0.1835,0,0,0,0,0,-0.1273,-0.1332,-0.1404,-0.1439,-0.1451,-0.1518,-0.1543,-0.1577,-0.1615,-0.1629,-0.1666,-0.17,-0.1729,-0.1749,-0.1774,-0.1794,-0.1795,-0.1803,-0.1796,-0.179,-0.177,-0.1751,-0.174,-0.1859,-0.1859,-0.186,0,0,-0.1247,-0.132,-0.1347,-0.1428,-0.1464,-0.1479,-0.1532,-0.156,-0.1579,-0.1634,-0.1647,-0.1673,-0.1724,-0.1735,-0.1746,-0.1768,-0.1756,-0.1786,-0.1781,-0.1764,-0.1747,-0.1735,-0.1724,-0.1858,-0.1858,-0.1858,0,0,-0.122,-0.1283,-0.1309,-0.1347,-0.1408,-0.1447,-0.1451,-0.1508,-0.1533,-0.1553,-0.1589,-0.1594,-0.1657,-0.1675,-0.1701,-0.1666,-0.1711,-0.1695,-0.1646,-0.1627,-0.1617,-0.1608,-0.1593,-0.1583,-0.17,-0.17,-0.17,0,-0.1175,-0.1233,-0.1314,-0.1337,-0.1353,-0.1426,-0.1419,-0.1462,-0.1516,-0.152,-0.1541,-0.1571,-0.1622,-0.1624,-0.1622,-0.165,-0.1651,-0.1679,-0.1616,-0.1608,-0.16,-0.1587,-0.1577,-0.1696,-0.1697,-0.1697,-0.1697,0,-0.1163,-0.12,-0.1206,-0.1272,-0.1296,-0.1303,-0.1363,-0.1376,-0.1411,-0.1451,-0.1446,-0.1481,-0.1498,-0.1525,-0.1578,-0.1552,-0.1574,-0.1603,-0.1637,-0.1583,-0.1573,-0.1564,-0.1691,-0.1692,-0.1693,-0.1694,0,0,-0.1068,-0.1176,-0.1175,-0.1188,-0.1257,-0.1269,-0.1287,-0.1315,-0.1311,-0.1349,-0.1323,-0.1377,-0.1389,-0.1414,-0.1459,-0.1457,-0.1422,-0.1515,-0.1515,-0.1496,-0.1382,-0.1324,-0.131,-0.1447,-0.1445,-0.1443,-0.1398,0,-0.1017,-0.1044,-0.1115,-0.1111,-0.1107,-0.1173,-0.1181,-0.122,-0.1255,-0.1248,-0.128,-0.128,-0.1355,-0.1349,-0.1357,-0.1405,-0.1395,-0.1431,-0.144,-0.1439,-0.1392,-0.1295,-0.1187,-0.113,-0.1389,-0.1388,-0.1387,0,-0.0958,-0.0993,-0.0976,-0.1027,-0.1025,-0.1029,-0.1031,-0.1059,-0.109,-0.1106,-0.1105,-0.115,-0.1154,-0.1214,-0.1239,-0.1263,-0.1313,-0.1345,-0.1345,-0.1304,-0.1363,-0.1227,-0.1105,-0.1331,-0.1373,-0.1374,-0.1375,0,-0.083,-0.0886,-0.087,-0.0886,-0.0945,-0.0932,-0.0958,-0.0995,-0.098,-0.1006,-0.0962,-0.101,-0.0978,-0.1052,-0.1144,-0.1197,-0.1151,-0.1234,-0.1214,-0.1212,-0.1124,-0.1116,-0.1212,-0.122,-0.1221,-0.1221,-0.1221,0,-0.0739,-0.0721,-0.0808,-0.0791,-0.0745,-0.0832,-0.0776,-0.0811,-0.081,-0.0731,-0.0866,-0.0767,-0.0934,-0.0946,-0.1071,-0.1086,-0.109,-0.1164,-0.1176,-0.1096,-0.1087,-0.1286,-0.1403,-0.1219,-0.1219,-0.122,-0.122,0,-0.058,-0.0649,-0.0617,-0.0669,-0.0679,-0.0635,-0.0641,-0.0591,-0.0631,-0.0514,-0.0504,-0.0559,-0.0567,-0.0726,-0.082,-0.094,-0.107,-0.1015,-0.091,-0.091,-0.1123,-0.1238,-0.1266,-0.1328,-0.099,-0.0988,-0.0986,0,-0.0504,-0.0475,-0.0493,-0.0452,-0.0463,-0.0436,-0.0393,-0.0462,-0.0394,-0.0339,-0.0234,-0.025,-0.0162,-0.0304,-0.0537,-0.071,-0.093,-0.0767,-0.0846,-0.1079,-0.1218,-0.1314,-0.1374,-0.0712,-0.0708,-0.0705,-0.0702,0,-0.0324,-0.0324,-0.0294,-0.0224,-0.0174,-0.0112,-0.0065,0.001,-0.0011,0.0099,0.0274,0.0338,0.0189,0.009,-0.0216,-0.0378,-0.087,-0.0708,-0.0966,-0.0996,-0.1085,-0.1168,-0.0828,-0.0674,-0.0677,-0.0679,-0.0681,-0.0682,-0.0161,-0.009,-0.005,0.0032,0.0104,0.0241,0.0339,0.0425,0.0589,0.0782,0.0755,0.0928,0.0617,0.0243,-0.0046,-0.0591,-0.0639,-0.0758,-0.0873,-0.0949,-0.101,-0.0603,-0.046,-0.0462,-0.0463,-0.0464,-0.0465,0,0.0024,0.0095,0.0197,0.0321,0.0468,0.0435,0.0589,0.071,0.0973,0.116,0.1344,0.1322,0.0966,0.0427,-0.0291,-0.0696,-0.0884,-0.0954,-0.1104,-0.1157,-0.0796,-0.079,-0.0689,-0.0689,-0.0689,-0.0689,-0.0689,-0.0688,0.0136,0.0276,0.0322,0.062,0.0721,0.0914,0.1019,0.1208,0.1356,0.1637,0.1755,0.1819,0.1352,0.0097,-0.085,-0.107,-0.1393,-0.1373,-0.1609,-0.1435,-0.1429,-0.1423,-0.1452,-0.149,-0.1491,-0.1897,-0.1901,-0.1904]}],[{"header":{"parameterUnit":"m.s-1","parameterCategory":2,"la1":30.2991,"la2":30.254,"lo1":-89.0895,"lo2":-89.0444,"dy":0.0017,"dx":0.0017,"nx":28,"ny":28,"refTime":"2023-10-19T21:00:00:Z","depth":"2","parameterNumber":2,"parameterNumberName":"U-component_of_CURRENTS"},"data":[0,0,0,0,0,0,0,0,0,0,0,0,0,0,0,0,0,0,0,0,0,0,0,0,0,0,0,0,0,0,0,0,0,0,0,0,0,0,0,0,0,0,0,0,0,0,0,0,0,0,0,0,0,0,0,0,0,0,0.2474,0.2474,0,0.2518,0.2518,0.2519,0.265,0.2653,0.2656,0.2658,0.2698,0.2697,0.2695,0,0,0,0,0,0,0,0,0,0,0,0,0,0.2332,0.2335,0.2474,0.2474,0.2475,0.2518,0.2518,0.2519,0.265,0.2653,0.2656,0.2659,0.2699,0.2697,0.2695,0,0,0,0,0,0,0,0,0,0,0,0,0,0.2389,0.2336,0.2474,0.2543,0.255,0.2517,0.2518,0.2519,0.2649,0.2653,0.2657,0.2661,0.2699,0.2697,0.2695,0.2602,0,0,0.2689,0.2688,0,0,0,0,0,0,0,0,0.2386,0.2395,0.2533,0.2538,0.2546,0.2581,0.2483,0.2546,0.2648,0.2614,0.2658,0.2663,0.2654,0.2656,0.2659,0.2604,0.2606,0.2688,0.2687,0.2686,0.2686,0,0,0,0,0,0,0,0.2382,0.2392,0.2494,0.2533,0.254,0.2513,0.2527,0.2495,0.2613,0.2617,0.2626,0.2626,0.2658,0.266,0.266,0.2606,0.2688,0.2687,0.2685,0.2684,0.2562,0.256,0,0,0,0,0,0,0.2377,0.239,0.2492,0.2495,0.2471,0.2513,0.2529,0.2567,0.2614,0.2624,0.2622,0.2632,0.2662,0.2663,0.2662,0.2676,0.2686,0.2684,0.2683,0.2564,0.2561,0.2559,0,0,0,0,0,0,0.2374,0.2387,0.2491,0.2438,0.245,0.2512,0.2553,0.2566,0.2593,0.2617,0.2629,0.264,0.2665,0.2665,0.2644,0.2675,0.2683,0.2681,0.2566,0.2563,0.256,0.2626,0,0,0,0,0,0,0.2371,0.2387,0.2403,0.244,0.2453,0.2511,0.2549,0.2564,0.2584,0.2598,0.2634,0.2641,0.2668,0.2647,0.2642,0.2672,0.268,0.2569,0.2565,0.2561,0.2626,0.2626,0.2625,0,0,0,0,0,0.2366,0.2392,0.2404,0.2416,0.2478,0.2512,0.2517,0.2573,0.2581,0.2608,0.2605,0.2642,0.2621,0.2642,0.2637,0.2668,0.257,0.2566,0.2562,0.2627,0.2626,0.2625,0,0,0,0,0,0,0.2341,0.2408,0.2423,0.247,0.2498,0.2535,0.2544,0.2563,0.2578,0.2583,0.2603,0.2608,0.2605,0.2594,0.2617,0.2612,0.2605,0.2599,0.2656,0.2655,0.2654,0.2607,0.2678,0,0,0,0,0,0.2334,0.2377,0.2423,0.2454,0.2465,0.2492,0.2503,0.2543,0.2557,0.2572,0.258,0.2575,0.257,0.2582,0.2568,0.255,0.2555,0.2563,0.2562,0.2563,0.2514,0.2544,0.2544,0.2545,0.2545,0.2545,0,0,0.2324,0.2367,0.2387,0.2449,0.2465,0.2484,0.2513,0.2541,0.255,0.2562,0.2559,0.2563,0.2555,0.256,0.2558,0.2568,0.2574,0.2557,0.2558,0.2507,0.254,0.254,0.2541,0.2542,0.2542,0.2543,0,0,0.2311,0.2367,0.2385,0.2416,0.2452,0.2477,0.2484,0.2517,0.2534,0.2515,0.2533,0.2535,0.2518,0.2539,0.254,0.2502,0.2558,0.2518,0.25,0.2533,0.2535,0.2536,0.26,0.2606,0.2535,0.2535,0.2536,0,0.2286,0.2336,0.2389,0.241,0.2422,0.2472,0.2478,0.2495,0.2514,0.2504,0.2523,0.2492,0.2502,0.2507,0.2507,0.2508,0.2542,0.2526,0.2539,0.2539,0.2539,0.2604,0.261,0.2538,0.2538,0.2538,0.2537,0,0.2287,0.2323,0.2334,0.2384,0.2402,0.2428,0.2456,0.2479,0.2485,0.2486,0.2475,0.2479,0.2467,0.2492,0.2486,0.2497,0.2531,0.2536,0.2559,0.2545,0.2613,0.2618,0.2542,0.2541,0.254,0.2539,0,0,0.225,0.2319,0.2328,0.2329,0.2397,0.2406,0.243,0.2449,0.2447,0.2461,0.2445,0.2439,0.244,0.2432,0.2459,0.2484,0.2543,0.2507,0.2508,0.2601,0.2651,0.2724,0.2737,0.2577,0.2577,0.2576,0.2723,0,0.223,0.2245,0.2303,0.2309,0.2304,0.2375,0.238,0.2402,0.2422,0.2424,0.2434,0.2421,0.2424,0.2436,0.2456,0.2507,0.2548,0.2503,0.2619,0.2621,0.2714,0.2741,0.2448,0.2556,0.2728,0.2729,0.2729,0,0.221,0.2223,0.2215,0.2245,0.2251,0.2266,0.2296,0.2317,0.235,0.2359,0.2371,0.2383,0.2405,0.2411,0.2494,0.2477,0.2538,0.2589,0.2597,0.2625,0.2701,0.258,0.2558,0.2738,0.2737,0.2737,0.2736,0,0.2121,0.2164,0.2148,0.2164,0.2206,0.2211,0.2241,0.2276,0.2291,0.2322,0.2343,0.2364,0.24,0.2451,0.2564,0.2529,0.2687,0.2663,0.2791,0.28,0.2541,0.2528,0.2705,0.2705,0.2705,0.2704,0.2704,0,0.2078,0.2066,0.2099,0.2094,0.2075,0.2119,0.2118,0.2167,0.2216,0.2256,0.229,0.236,0.2409,0.2522,0.2582,0.2734,0.2717,0.2774,0.2831,0.2563,0.255,0.2674,0.2668,0.271,0.2709,0.2708,0.2707,0,0.1974,0.2012,0.1989,0.2019,0.2029,0.2006,0.2067,0.2082,0.2138,0.2211,0.2227,0.2359,0.2542,0.2641,0.2781,0.279,0.2907,0.2971,0.268,0.2699,0.2984,0.2979,0.3075,0.3079,0.3082,0.3084,0.3086,0,0.1924,0.1894,0.1917,0.1922,0.1938,0.1932,0.1954,0.2025,0.2079,0.2251,0.2304,0.2493,0.2655,0.2896,0.2932,0.306,0.3106,0.2873,0.2722,0.297,0.3016,0.3007,0.2998,0.2421,0.2417,0.2414,0.2412,0,0.182,0.1827,0.1826,0.1838,0.1856,0.1882,0.1936,0.1968,0.2107,0.2198,0.2419,0.2558,0.2777,0.2791,0.2943,0.2967,0.2813,0.2826,0.3139,0.2402,0.2372,0.2413,0.2421,0.2386,0.2389,0.2391,0.2392,0.2393,0.1753,0.1734,0.1761,0.1773,0.1803,0.1868,0.1884,0.1994,0.2108,0.2225,0.2415,0.2507,0.2564,0.2656,0.2673,0.2651,0.2831,0.266,0.2659,0.2663,0.259,0.257,0.2609,0.2613,0.2616,0.2619,0.2621,0,0.1693,0.1706,0.1711,0.1753,0.1782,0.182,0.191,0.1933,0.208,0.2149,0.2282,0.2123,0.2183,0.2275,0.2186,0.2244,0.2104,0.2183,0.1931,0.1961,0.1986,0.1868,0.1701,0.1698,0.1696,0.1694,0,0,0.1674,0.168,0.17,0.1746,0.1771,0.181,0.1857,0.1901,0.1944,0.1901,0.1858,0.1983,0.2144,0.184,0.186,0.1767,0.1832,0.1704,0.2437,0.2165,0.2186,0.2265,0.2122,0,0,0,0,0]},{"header":{"parameterUnit":"m.s-1","parameterCategory":2,"la1":30.2991,"la2":30.254,"lo1":-89.0895,"lo2":-89.0444,"dy":0.0017,"dx":0.0017,"nx":28,"ny":28,"refTime":"2023-10-19T21:00:00:Z","depth":"2","parameterNumber":3,"parameterNumberName":"V-component_of_CURRENTS"},"data":[0,0,0,0,0,0,0,0,0,0,0,0,0,0,0,0,0,0,0,0,0,0,0,0,0,0,0,0,0,0,0,0,0,0,0,0,0,0,0,0,0,0,0,0,0,0,0,0,0,0,0,0,0,0,0,0,0,0,-0.022,-0.0219,0,-0.0173,-0.0173,-0.0173,-0.0178,-0.0178,-0.0178,-0.0178,-0.0363,-0.0368,-0.0373,0,0,0,0,0,0,0,0,0,0,0,0,0,-0.0254,-0.0255,-0.022,-0.0219,-0.0218,-0.0173,-0.0173,-0.0173,-0.0178,-0.0178,-0.0178,-0.0178,-0.0362,-0.0368,-0.0373,0,0,0,0,0,0,0,0,0,0,0,0,0,-0.0234,-0.0255,-0.022,-0.0209,-0.0207,-0.0173,-0.0173,-0.0173,-0.0178,-0.0178,-0.0178,-0.0178,-0.036,-0.0367,-0.0374,-0.0418,0,0,-0.0397,-0.04,0,0,0,0,0,0,0,0,-0.0235,-0.0234,-0.0212,-0.021,-0.0207,-0.0175,-0.0253,-0.0264,-0.0178,-0.0197,-0.0178,-0.0178,-0.0317,-0.0328,-0.0326,-0.0427,-0.0435,-0.0397,-0.0402,-0.0405,-0.0407,0,0,0,0,0,0,0,-0.0237,-0.0235,-0.0209,-0.021,-0.0207,-0.0185,-0.0184,-0.0254,-0.0267,-0.0195,-0.0193,-0.0176,-0.0319,-0.0319,-0.0331,-0.0438,-0.0397,-0.0404,-0.0408,-0.0411,-0.0645,-0.0646,0,0,0,0,0,0,-0.0231,-0.0237,-0.021,-0.0207,-0.0213,-0.0184,-0.0183,-0.0191,-0.0261,-0.0268,-0.0176,-0.0176,-0.0306,-0.0323,-0.0338,-0.0427,-0.0405,-0.0412,-0.0416,-0.0643,-0.0645,-0.0647,0,0,0,0,0,0,-0.0232,-0.023,-0.0212,-0.0213,-0.0208,-0.0183,-0.0193,-0.019,-0.0217,-0.0243,-0.0256,-0.0207,-0.0307,-0.0328,-0.0434,-0.0433,-0.0415,-0.0422,-0.0641,-0.0643,-0.0646,-0.0585,0,0,0,0,0,0,-0.0234,-0.0231,-0.0247,-0.0214,-0.0208,-0.0216,-0.0192,-0.0189,-0.02,-0.0202,-0.0274,-0.0289,-0.0309,-0.0423,-0.0442,-0.0443,-0.0428,-0.0638,-0.0642,-0.0645,-0.0585,-0.0585,-0.0586,0,0,0,0,0,-0.0236,-0.0243,-0.0249,-0.0245,-0.0227,-0.0216,-0.0213,-0.0198,-0.0202,-0.0223,-0.0279,-0.0288,-0.0456,-0.0432,-0.0453,-0.0456,-0.0637,-0.0641,-0.0645,-0.0585,-0.0585,-0.0586,0,0,0,0,0,0,-0.0262,-0.0243,-0.0248,-0.0251,-0.0248,-0.0214,-0.0238,-0.022,-0.0274,-0.0304,-0.0328,-0.0348,-0.0436,-0.0474,-0.0445,-0.0537,-0.0542,-0.0551,-0.0489,-0.0491,-0.0491,-0.0444,-0.0434,0,0,0,0,0,-0.0276,-0.0279,-0.0265,-0.0268,-0.0292,-0.0277,-0.0275,-0.0267,-0.0294,-0.0316,-0.0363,-0.0423,-0.0463,-0.0501,-0.0563,-0.0628,-0.0633,-0.0643,-0.0643,-0.0643,-0.0622,-0.0626,-0.0622,-0.066,-0.066,-0.066,0,0,-0.0291,-0.027,-0.0279,-0.0273,-0.0292,-0.0278,-0.0282,-0.0304,-0.0291,-0.0337,-0.0395,-0.0447,-0.0489,-0.0546,-0.0587,-0.0579,-0.0643,-0.0648,-0.0647,-0.0626,-0.0629,-0.0625,-0.0621,-0.0663,-0.0662,-0.0662,0,0,-0.0288,-0.0323,-0.0327,-0.033,-0.034,-0.0316,-0.033,-0.0343,-0.0378,-0.0422,-0.0445,-0.0494,-0.0581,-0.0583,-0.0594,-0.0645,-0.0654,-0.0679,-0.0631,-0.0635,-0.063,-0.0626,-0.0643,-0.0641,-0.0667,-0.0667,-0.0667,0,-0.0287,-0.0289,-0.0326,-0.0323,-0.0323,-0.0333,-0.0336,-0.0349,-0.0384,-0.0428,-0.0447,-0.052,-0.0574,-0.0575,-0.0587,-0.0638,-0.0652,-0.0614,-0.0628,-0.0624,-0.0621,-0.064,-0.0638,-0.0664,-0.0664,-0.0665,-0.0665,0,-0.0296,-0.0287,-0.0305,-0.0289,-0.0307,-0.0315,-0.0338,-0.0371,-0.0403,-0.0412,-0.0481,-0.0523,-0.0556,-0.0572,-0.0592,-0.0591,-0.0616,-0.0631,-0.0608,-0.0612,-0.0634,-0.0633,-0.0661,-0.0662,-0.0662,-0.0663,0,0,-0.0256,-0.0296,-0.0281,-0.0298,-0.0298,-0.0311,-0.0325,-0.0345,-0.0355,-0.0402,-0.0414,-0.0463,-0.0501,-0.0515,-0.054,-0.0524,-0.0526,-0.0565,-0.0566,-0.0549,-0.0547,-0.0516,-0.0512,-0.0542,-0.0541,-0.054,-0.0576,0,-0.0227,-0.0219,-0.0236,-0.022,-0.0249,-0.0274,-0.0262,-0.0298,-0.0347,-0.0373,-0.0412,-0.0449,-0.0474,-0.049,-0.048,-0.0518,-0.0519,-0.0516,-0.0574,-0.0576,-0.0519,-0.0507,-0.0523,-0.055,-0.0575,-0.0575,-0.0574,0,-0.0207,-0.0201,-0.0215,-0.022,-0.0239,-0.0213,-0.0247,-0.0253,-0.0293,-0.0339,-0.0367,-0.0417,-0.0415,-0.0437,-0.0454,-0.0455,-0.0505,-0.0516,-0.0518,-0.05,-0.0541,-0.0553,-0.0547,-0.0573,-0.0573,-0.0573,-0.0573,0,-0.0185,-0.0172,-0.0189,-0.0198,-0.0204,-0.0223,-0.0214,-0.0257,-0.0269,-0.0335,-0.0326,-0.0368,-0.0363,-0.0404,-0.045,-0.047,-0.0453,-0.0496,-0.0508,-0.0508,-0.0535,-0.0537,-0.0514,-0.0514,-0.0514,-0.0514,-0.0514,0,-0.0136,-0.0135,-0.0186,-0.019,-0.017,-0.0233,-0.0221,-0.0223,-0.0234,-0.0199,-0.0315,-0.0251,-0.0353,-0.0364,-0.0429,-0.0442,-0.045,-0.0484,-0.0502,-0.052,-0.052,-0.055,-0.0554,-0.0515,-0.0515,-0.0515,-0.0515,0,-0.0108,-0.0133,-0.0144,-0.0168,-0.0165,-0.0173,-0.0153,-0.0131,-0.0172,-0.0116,-0.0125,-0.0167,-0.0177,-0.0267,-0.0327,-0.0396,-0.0433,-0.0449,-0.0464,-0.0481,-0.0504,-0.0505,-0.048,-0.0479,-0.0478,-0.0477,-0.0477,0,-0.0089,-0.0109,-0.012,-0.0089,-0.0091,-0.0098,-0.0051,-0.0078,-0.0045,-0.0015,0.0051,0.0011,0.0056,-0.0043,-0.0209,-0.0335,-0.0359,-0.0438,-0.0471,-0.0473,-0.0494,-0.0497,-0.0499,-0.0508,-0.0508,-0.0507,-0.0507,0,-0.0043,-0.0065,-0.0058,0.0005,0.0044,0.0092,0.0134,0.0181,0.0181,0.0233,0.0339,0.0359,0.023,0.009,-0.0137,-0.0224,-0.0423,-0.0433,-0.0427,-0.0496,-0.0497,-0.0518,-0.052,-0.0505,-0.0505,-0.0505,-0.0505,-0.0505,0.0005,0.0042,0.0063,0.0114,0.0187,0.0285,0.032,0.0383,0.047,0.0522,0.0559,0.0571,0.0358,0.0078,-0.0112,-0.0359,-0.0352,-0.0454,-0.0457,-0.0459,-0.0437,-0.0434,-0.0428,-0.0428,-0.0428,-0.0428,-0.0428,0,0.0079,0.012,0.0188,0.0261,0.0343,0.0365,0.0461,0.0485,0.0589,0.0664,0.0715,0.0565,0.0377,0.0144,-0.0229,-0.0424,-0.047,-0.0473,-0.0515,-0.0515,-0.0516,-0.05,-0.0506,-0.0507,-0.0507,-0.0508,0,0,0.0121,0.0197,0.0224,0.037,0.0433,0.0542,0.0591,0.0654,0.0698,0.0749,0.0742,0.0693,0.0445,0.0167,-0.0118,-0.0321,-0.0368,-0.0351,-0.0272,-0.029,-0.0289,-0.0493,-0.0465,0,0,0,0,0]}],[{"header":{"parameterUnit":"m.s-1","parameterCategory":2,"la1":30.2991,"la2":30.254,"lo1":-89.0895,"lo2":-89.0444,"dy":0.0017,"dx":0.0017,"nx":28,"ny":28,"refTime":"2023-10-19T21:00:00:Z","depth":"4","parameterNumber":2,"parameterNumberName":"U-component_of_CURRENTS"},"data":[0,0,0,0,0,0,0,0,0,0,0,0,0,0,0,0,0,0,0,0,0,0,0,0,0,0,0,0,0,0,0,0,0,0,0,0,0,0,0,0,0,0,0,0,0,0,0,0,0,0,0,0,0,0,0,0,0,0,0.0791,0.0792,0,0.0887,0.0888,0.0889,0.0965,0.0965,0.0966,0.0967,0.114,0.1144,0.1148,0,0,0,0,0,0,0,0,0,0,0,0,0,0.0687,0.0688,0.0791,0.0792,0.0793,0.0887,0.0888,0.0889,0.0964,0.0965,0.0966,0.0967,0.1139,0.1144,0.1148,0,0,0,0,0,0,0,0,0,0,0,0,0,0.0751,0.0689,0.079,0.0843,0.0849,0.0887,0.0888,0.089,0.0964,0.0965,0.0967,0.0968,0.1138,0.1143,0.1149,0.1159,0,0,0.1166,0.1169,0,0,0,0,0,0,0,0,0.0747,0.0755,0.0834,0.0839,0.0846,0.0916,0.0915,0.0984,0.0964,0.0919,0.0967,0.0968,0.1072,0.1083,0.1096,0.1167,0.1175,0.1167,0.117,0.1173,0.1174,0,0,0,0,0,0,0,0.0743,0.0751,0.0828,0.0835,0.0843,0.0867,0.0877,0.0928,0.0988,0.0923,0.0929,0.0941,0.1076,0.109,0.1101,0.1177,0.1167,0.1172,0.1175,0.1178,0.1375,0.1377,0,0,0,0,0,0,0.0731,0.0747,0.0825,0.0831,0.08,0.0868,0.0879,0.0891,0.0986,0.1001,0.094,0.0944,0.108,0.1094,0.1107,0.1241,0.1173,0.1178,0.1182,0.1373,0.1376,0.1377,0,0,0,0,0,0,0.0729,0.0737,0.0821,0.0792,0.0804,0.0868,0.0881,0.0893,0.0939,0.0998,0.1015,0.0979,0.1081,0.1099,0.1175,0.1244,0.1181,0.1186,0.1371,0.1374,0.1377,0.1434,0,0,0,0,0,0,0.0725,0.0736,0.0752,0.0791,0.0806,0.0873,0.0881,0.0894,0.0943,0.0951,0.1036,0.1052,0.1084,0.1166,0.118,0.1251,0.1191,0.1369,0.1372,0.1376,0.143,0.1439,0.1446,0,0,0,0,0,0.0721,0.0739,0.0752,0.0762,0.0822,0.0875,0.0886,0.0933,0.0944,0.0977,0.1023,0.1051,0.1198,0.1171,0.1188,0.1262,0.1367,0.1371,0.1375,0.1427,0.1437,0.1446,0,0,0,0,0,0,0.0704,0.075,0.0764,0.0796,0.0844,0.0889,0.0923,0.0946,0.1006,0.102,0.1065,0.1085,0.1179,0.1202,0.1171,0.1326,0.1292,0.1299,0.1325,0.1335,0.1343,0.1323,0.1195,0,0,0,0,0,0.0704,0.073,0.0779,0.0806,0.0834,0.088,0.091,0.0943,0.0993,0.1021,0.1076,0.1137,0.1203,0.1252,0.1305,0.1386,0.1391,0.1446,0.1454,0.146,0.1455,0.1524,0.1537,0.1391,0.1391,0.1391,0,0,0.0695,0.0731,0.0741,0.0804,0.0844,0.0896,0.0903,0.0961,0.101,0.1031,0.112,0.1166,0.1226,0.1319,0.1365,0.1354,0.1502,0.1465,0.1471,0.1461,0.1529,0.1543,0.1556,0.1394,0.1393,0.1393,0,0,0.0702,0.0735,0.0766,0.081,0.0882,0.0921,0.0944,0.1009,0.1051,0.1139,0.116,0.1218,0.1347,0.1375,0.1414,0.1489,0.1534,0.1548,0.1589,0.1657,0.1669,0.168,0.1688,0.17,0.1562,0.1562,0.1562,0,0.0693,0.0746,0.0784,0.0835,0.0874,0.0936,0.0984,0.1039,0.112,0.1162,0.1186,0.1344,0.1364,0.1467,0.1488,0.1506,0.1553,0.155,0.1667,0.1678,0.1689,0.1694,0.1706,0.1565,0.1565,0.1565,0.1564,0,0.0727,0.078,0.0808,0.0891,0.0935,0.0994,0.1064,0.1137,0.1205,0.1255,0.1382,0.1422,0.1528,0.1542,0.1542,0.1642,0.1651,0.1662,0.1641,0.1707,0.1708,0.172,0.157,0.1569,0.1568,0.1567,0,0,0.0682,0.0807,0.0821,0.087,0.0973,0.1013,0.1112,0.1214,0.1295,0.1395,0.1531,0.1576,0.1624,0.1664,0.1688,0.1716,0.1787,0.1734,0.1737,0.1736,0.1937,0.1798,0.1797,0.1863,0.1866,0.1868,0.1902,0,0.0708,0.0789,0.0861,0.0956,0.0996,0.1096,0.1183,0.1277,0.138,0.1535,0.1608,0.1724,0.1675,0.1749,0.1787,0.1772,0.1826,0.1775,0.1877,0.1877,0.1743,0.1808,0.1877,0.191,0.1913,0.1915,0.1916,0,0.0724,0.0773,0.0853,0.0985,0.102,0.1103,0.1255,0.1355,0.1551,0.1641,0.1787,0.1868,0.1926,0.1917,0.1938,0.1933,0.1957,0.1937,0.194,0.1795,0.176,0.1836,0.1936,0.1934,0.1933,0.1932,0.193,0,0.0644,0.0781,0.0844,0.0883,0.1035,0.112,0.1232,0.1384,0.1506,0.1729,0.183,0.1958,0.2017,0.2078,0.2025,0.2022,0.2069,0.2057,0.1961,0.195,0.2037,0.2025,0.2147,0.2147,0.2147,0.2147,0.2146,0,0.0635,0.069,0.0827,0.0861,0.0987,0.1089,0.1286,0.1394,0.1625,0.1752,0.1892,0.1979,0.2066,0.2112,0.2109,0.2035,0.214,0.1964,0.1961,0.2056,0.2047,0.2043,0.2031,0.2148,0.2147,0.2147,0.2147,0,0.0546,0.0639,0.0713,0.0872,0.0961,0.1039,0.1351,0.148,0.1635,0.1826,0.1899,0.2013,0.1993,0.2064,0.2105,0.2058,0.2049,0.2036,0.2106,0.2107,0.1866,0.1857,0.1902,0.1898,0.1894,0.1891,0.1889,0,0.0512,0.0538,0.0707,0.08,0.0902,0.1099,0.126,0.149,0.1586,0.1784,0.1821,0.1909,0.1965,0.1884,0.1965,0.199,0.1987,0.1979,0.1933,0.1855,0.1848,0.1844,0.1839,0.1883,0.1882,0.1881,0.188,0,0.0439,0.0501,0.0576,0.0741,0.0911,0.1099,0.1293,0.1325,0.1534,0.1737,0.1712,0.1763,0.1763,0.1769,0.182,0.184,0.1965,0.194,0.1947,0.1903,0.1832,0.1828,0.1827,0.1867,0.1869,0.187,0.1871,0,0.0401,0.0415,0.0533,0.0678,0.0879,0.0952,0.1091,0.1194,0.1324,0.1479,0.1477,0.1573,0.1711,0.1693,0.1735,0.1743,0.1713,0.1662,0.1683,0.1698,0.1622,0.15,0.1433,0,0,0,0,0,0.0357,0.0372,0.0489,0.0601,0.0787,0.0904,0.1055,0.1164,0.1318,0.1264,0.1369,0.1385,0.1437,0.1489,0.1455,0.1624,0.1696,0.1578,0.164,0.1796,0.1811,0.1742,0,0,0,0,0,0,0.0327,0.0406,0.0427,0.0516,0.06,0.0772,0.0835,0.0937,0.0891,0.1064,0.1079,0.1327,0.1369,0.1457,0.1443,0.1471,0.1481,0.1705,0.1702,0.1788,0.1801,0.1813,0.1748,0,0,0,0,0]},{"header":{"parameterUnit":"m.s-1","parameterCategory":2,"la1":30.2991,"la2":30.254,"lo1":-89.0895,"lo2":-89.0444,"dy":0.0017,"dx":0.0017,"nx":28,"ny":28,"refTime":"2023-10-19T21:00:00:Z","depth":"4","parameterNumber":3,"parameterNumberName":"V-component_of_CURRENTS"},"data":[0,0,0,0,0,0,0,0,0,0,0,0,0,0,0,0,0,0,0,0,0,0,0,0,0,0,0,0,0,0,0,0,0,0,0,0,0,0,0,0,0,0,0,0,0,0,0,0,0,0,0,0,0,0,0,0,0,0,0.0589,0.0589,0,0.056,0.056,0.0559,0.0514,0.0514,0.0513,0.0513,0.0457,0.0456,0.0455,0,0,0,0,0,0,0,0,0,0,0,0,0,0.0555,0.0556,0.0589,0.0589,0.0589,0.056,0.056,0.0559,0.0514,0.0514,0.0513,0.0513,0.0458,0.0456,0.0455,0,0,0,0,0,0,0,0,0,0,0,0,0,0.0548,0.0556,0.0589,0.0567,0.0565,0.0561,0.0559,0.0558,0.0514,0.0514,0.0513,0.0513,0.0458,0.0456,0.0455,0.0455,0,0,0.045,0.0449,0,0,0,0,0,0,0,0,0.0549,0.0549,0.057,0.0569,0.0566,0.0544,0.0527,0.0524,0.0514,0.0529,0.0513,0.0512,0.0487,0.0483,0.0473,0.0453,0.045,0.0449,0.0448,0.0448,0.0447,0,0,0,0,0,0,0,0.0549,0.055,0.0573,0.057,0.0568,0.0542,0.054,0.0526,0.0507,0.0527,0.0525,0.053,0.0485,0.0474,0.0471,0.0449,0.0449,0.0448,0.0447,0.0446,0.0411,0.0411,0,0,0,0,0,0,0.0566,0.0551,0.0574,0.0572,0.0561,0.0543,0.0541,0.0548,0.0508,0.0503,0.053,0.0528,0.0478,0.0473,0.0469,0.0459,0.0448,0.0446,0.0445,0.0411,0.0411,0.0411,0,0,0,0,0,0,0.0565,0.0568,0.0575,0.0564,0.0564,0.0545,0.0553,0.0548,0.0543,0.0511,0.0505,0.0532,0.0477,0.0471,0.0458,0.0457,0.0445,0.0444,0.0411,0.0411,0.0411,0.0444,0,0,0,0,0,0,0.0564,0.0568,0.0583,0.0566,0.0565,0.0575,0.0554,0.0548,0.0549,0.0545,0.0511,0.0504,0.0476,0.0461,0.0456,0.0454,0.0442,0.0411,0.0411,0.0411,0.0443,0.0445,0.0447,0,0,0,0,0,0.0563,0.0584,0.0584,0.0587,0.0585,0.0575,0.0572,0.0553,0.055,0.0547,0.0525,0.0506,0.0458,0.046,0.0454,0.0452,0.0411,0.0411,0.0411,0.0442,0.0445,0.0447,0,0,0,0,0,0,0.0577,0.0582,0.0581,0.0603,0.0593,0.057,0.0575,0.0564,0.0544,0.0544,0.0511,0.0503,0.0485,0.047,0.0472,0.0442,0.043,0.043,0.0455,0.0458,0.046,0.047,0.0441,0,0,0,0,0,0.0591,0.0608,0.0599,0.0618,0.0618,0.06,0.0598,0.0583,0.0565,0.0557,0.0536,0.0511,0.0482,0.0473,0.0446,0.044,0.0407,0.0433,0.0435,0.0437,0.0442,0.0383,0.038,0.0412,0.0412,0.0412,0,0,0.0605,0.0609,0.062,0.0623,0.0617,0.0616,0.0596,0.0596,0.0592,0.0555,0.0551,0.0519,0.0481,0.0461,0.0453,0.045,0.0412,0.0438,0.044,0.0443,0.0383,0.038,0.0377,0.0412,0.0412,0.0412,0,0,0.0627,0.0643,0.0656,0.0652,0.0649,0.0638,0.0643,0.0626,0.0615,0.0609,0.0572,0.0541,0.052,0.0477,0.0456,0.0459,0.0423,0.0457,0.0481,0.0423,0.042,0.0417,0.0376,0.0369,0.0462,0.0462,0.0463,0,0.064,0.0657,0.0658,0.0662,0.0661,0.0653,0.0652,0.0647,0.0627,0.0615,0.0615,0.0558,0.0522,0.0481,0.0476,0.0463,0.0434,0.0473,0.0426,0.0421,0.0417,0.0376,0.0368,0.0464,0.0464,0.0464,0.0464,0,0.0659,0.0676,0.0684,0.069,0.0687,0.069,0.068,0.0689,0.0685,0.0658,0.063,0.0586,0.0558,0.0531,0.0505,0.046,0.045,0.0431,0.0418,0.0416,0.0373,0.0364,0.0466,0.0466,0.0465,0.0465,0,0,0.0672,0.0692,0.0697,0.0708,0.0699,0.0705,0.0712,0.0699,0.0715,0.0684,0.0695,0.0613,0.0598,0.0573,0.0536,0.0478,0.0417,0.0451,0.0448,0.0412,0.0304,0.0268,0.0254,0.0391,0.0389,0.0388,0.0287,0,0.068,0.0695,0.0703,0.0727,0.0727,0.0735,0.0752,0.0741,0.073,0.0748,0.0689,0.0677,0.0614,0.0618,0.0549,0.0445,0.0394,0.0447,0.0311,0.0308,0.0276,0.0242,0.0383,0.028,0.0277,0.0276,0.0275,0,0.0685,0.0692,0.0711,0.0748,0.0755,0.0786,0.0815,0.0834,0.0833,0.0821,0.0792,0.0761,0.0682,0.0656,0.0467,0.0507,0.042,0.0334,0.0328,0.0277,0.0254,0.028,0.0257,0.0258,0.026,0.0261,0.0262,0,0.067,0.0704,0.0726,0.0733,0.0772,0.0812,0.0853,0.0854,0.0882,0.0888,0.0883,0.0801,0.0764,0.0638,0.0461,0.0469,0.0263,0.0253,0.014,0.0137,0.0187,0.0192,0.0142,0.0142,0.0143,0.0143,0.0143,0,0.0657,0.0678,0.0744,0.0758,0.083,0.0847,0.0936,0.0949,0.0989,0.0979,0.094,0.0892,0.0752,0.0623,0.0487,0.0269,0.0276,0.0134,0.01,0.0205,0.0212,0.018,0.0186,0.0139,0.014,0.0141,0.0141,0,0.0623,0.066,0.0698,0.0773,0.083,0.0883,0.1024,0.1067,0.1074,0.1072,0.1074,0.0955,0.0748,0.0605,0.0382,0.0275,0.0098,0.0033,0.0165,0.0142,0.0013,0.0021,-0.0102,-0.0104,-0.0106,-0.0108,-0.0109,0,0.0591,0.0612,0.073,0.0792,0.0846,0.0964,0.105,0.1118,0.1113,0.1057,0.1009,0.0876,0.0761,0.0419,0.0282,0.0054,0.0019,-0.0045,-0.0027,0.0004,-0.0017,-0.0005,0.0006,-0.0112,-0.0113,-0.0113,-0.0114,0,0.0535,0.0599,0.0662,0.0788,0.0897,0.0994,0.108,0.1061,0.1067,0.1115,0.0912,0.0777,0.0559,0.0354,0.0197,0.0028,0.0009,-0.0066,-0.0063,-0.0046,-0.001,-0.0026,-0.0013,-0.012,-0.0119,-0.0119,-0.0118,0,0.053,0.0549,0.0662,0.0765,0.0892,0.09,0.0982,0.0952,0.0971,0.0869,0.0805,0.0625,0.0567,0.0337,0.0172,0.0027,-0.0012,-0.0055,-0.0053,-0.0047,0.0004,0.0061,-0.007,0,0,0,0,0,0.05,0.0516,0.062,0.0703,0.0824,0.0891,0.0931,0.0977,0.096,0.0805,0.0802,0.06,0.0359,0.027,0.0107,0.0128,-0.0036,-0.0065,-0.0086,-0.0158,-0.015,-0.0102,0,0,0,0,0,0,0.0467,0.0561,0.0583,0.063,0.0685,0.0786,0.0793,0.0804,0.0698,0.0682,0.055,0.0579,0.0344,0.0457,0.0114,0.0079,0.0042,-0.0132,-0.0136,-0.0162,-0.0155,-0.0149,-0.0097,0,0,0,0,0]}]]